国际通讯卫星 3-F2星 (INTELSAT 3-F2)

导读

INTELSAT 3-F2是国际通信卫星组织(ITSO)旗下第三代国际通信卫星系列的第二颗业务卫星,于1968年12月19日成功发射。作为早期全球通信基础设施的重要组成部分,它旨在为跨大西洋、跨太平洋等区域提供商业通信服务,包括电话、电报和早期电视转播,推动了全球卫星通信网络的初步构建,在冷战背景下见证了国际卫星通信产业从试验向商用化的关键转型。

基本信息
目录编号:
3623
目录名称:
INTELSAT 3-F2
国际标识:
1968-116A
轨道中心:
EARTH
卫星名称:
国际通讯卫星 3-F2星
卫星全名:
国际通讯卫星 3-F2星 (INTELSAT 3-F2)
卫星状态:
在轨 (已飞行20994 天)
发射日期:
1968-12-19 UTC
国别 :
(ITSO)
星等 :
--
轨道信息
数据来源 国际轨道数据
星历时间: 2026-06-12T14:57:31+0800
13小时前
查看轨道信息
半长轴: 45249.608km
偏心率: 0.009239
轨道倾角: 4.029°
近地点辐角 88.848°
升交点赤经 297.687°
平近点角 105.013°
近地点: 38453.409km
远地点: 39289.533km
周期: 1596.548分钟
每日圈数: 0.901946
详细信息
卫星平台:
Intelsat
平衡模式:
自旋稳定
覆盖范围:
全球
运营商:
国际卫星通信公司
运营商所在国:
美国
制造商(研发单位):
天合汽车集团
制造商所在国:
美国
使用方式:
暂无
卫星简介
从1965年4月至1984年3月,国际通信卫星组织发射了5代、6种不同性能的卫星共计35颗,除6颗卫星因运载火箭和远地点发动机故障而发射失败外,其余29颗卫星均被送到了预定的静止轨道位置。1984年8月前后,国际通信卫星组织利用部署在大西洋、太平洋、印度洋上空的15颗国际通信卫星,为遍布世界各地170多个国家或地区提供电话、电传、电报、电视和数据传输等电信业务;该卫星已退役。
2D轨道图
3D轨道图
轨道高度分析图
轨道倾角分析图
轨道综合分析图
查看轨道综合分析图